| time (UTC) | temp F | wind direction | speed knots | gust knots | rain 1hr in | rain 24hr in | rain mn in | humidity % | barometer mb |
| 20260505093053 | 56 | 0 | 0.0 | 0.0 | 0.00 | 0.00 | 0.00 | 79 | 1010.8 |
| 20260505092554 | 55 | 0 | 0.0 | 0.0 | 0.00 | 0.00 | 0.00 | 78 | 1010.7 |
| 20260505092053 | 55 | 0 | 0.0 | 0.0 | 0.00 | 0.00 | 0.00 | 77 | 1010.7 |
| 20260505091616 | 55 | 0 | 0.0 | 0.0 | 0.00 | 0.00 | 0.00 | 77 | 1010.5 |
| 20260505091051 | 55 | 0 | 0.0 | 0.0 | 0.00 | 0.00 | 0.00 | 77 | 1010.5 |
| 20260505090551 | 56 | 0 | 0.0 | 0.0 | 0.00 | 0.00 | 0.00 | 76 | 1010.4 |
| 20260505090101 | 56 | 0 | 0.0 | 0.0 | 0.00 | 0.00 | 0.00 | 76 | 1010.2 |
| 20260505085555 | 56 | 0 | 0.0 | 0.0 | 0.00 | 0.00 | 0.00 | 75 | 1010.3 |
| 20260505085052 | 57 | 0 | 0.0 | 0.0 | 0.00 | 0.00 | 0.00 | 75 | 1010.2 |
| 20260505084553 | 57 | 0 | 0.0 | 0.0 | 0.00 | 0.00 | 0.00 | 75 | 1010.1 |
| 20260505084053 | 57 | 0 | 0.0 | 0.0 | 0.00 | 0.00 | 0.00 | 74 | 1010.1 |
| 20260505083557 | 57 | 0 | 0.0 | 0.0 | 0.00 | 0.00 | 0.00 | 74 | 1010.2 |
| 20260505083056 | 57 | 0 | 0.0 | 0.0 | 0.00 | 0.00 | 0.00 | 73 | 1010.3 |
| 20260505082553 | 58 | 0 | 0.0 | 0.0 | 0.00 | 0.00 | 0.00 | 73 | 1010.3 |
| 20260505082054 | 58 | 0 | 0.0 | 0.0 | 0.00 | 0.00 | 0.00 | 72 | 1010.3 |
| 20260505081554 | 58 | 0 | 0.0 | 0.0 | 0.00 | 0.00 | 0.00 | 71 | 1010.2 |
| 20260505081052 | 59 | 0 | 0.0 | 0.0 | 0.00 | 0.00 | 0.00 | 70 | 1010.3 |
| 20260505080554 | 59 | 0 | 0.0 | 0.0 | 0.00 | 0.00 | 0.00 | 69 | 1010.2 |
| 20260505080054 | 59 | 0 | 0.0 | 0.0 | 0.00 | 0.00 | 0.00 | 69 | 1010.2 |
| 20260505075552 | 59 | 0 | 0.0 | 0.0 | 0.00 | 0.00 | 0.00 | 68 | 1010.1 |
| 20260505075053 | 59 | 0 | 0.0 | 0.0 | 0.00 | 0.00 | 0.00 | 68 | 1010.2 |
| 20260505074556 | 60 | 0 | 0.0 | 0.0 | 0.00 | 0.00 | 0.00 | 68 | 1010.2 |
| 20260505074054 | 60 | 0 | 0.0 | 0.0 | 0.00 | 0.00 | 0.00 | 67 | 1010.3 |
| 20260505073555 | 60 | 0 | 0.0 | 0.0 | 0.00 | 0.00 | 0.00 | 66 | 1010.1 |
| 20260505073059 | 61 | 0 | 0.0 | 0.0 | 0.00 | 0.00 | 0.00 | 66 | 1010.1 |
| 20260505072551 | 61 | 0 | 0.0 | 0.0 | 0.00 | 0.00 | 0.00 | 65 | 1010.0 |
| 20260505072054 | 61 | 0 | 0.0 | 0.0 | 0.00 | 0.00 | 0.00 | 65 | 1010.0 |
| 20260505071556 | 61 | 0 | 0.0 | 0.0 | 0.00 | 0.00 | 0.00 | 65 | 1009.9 |
| 20260505071054 | 62 | 0 | 0.0 | 0.0 | 0.00 | 0.00 | 0.00 | 65 | 1009.9 |
| 20260505070554 | 62 | 0 | 0.0 | 0.0 | 0.00 | 0.00 | 0.00 | 64 | 1009.8 |
| 20260505070057 | 62 | 0 | 0.0 | 0.0 | 0.00 | 0.00 | 0.00 | 64 | 1009.9 |
| 20260505065553 | 62 | 0 | 0.0 | 0.0 | 0.00 | 0.00 | 0.00 | 63 | 1010.0 |
| 20260505065053 | 63 | 0 | 0.0 | 0.9 | 0.00 | 0.00 | 0.00 | 63 | 1010.0 |
| 20260505064607 | 63 | 0 | 0.0 | 0.9 | 0.00 | 0.00 | 0.00 | 62 | 1010.1 |
| 20260505064052 | 63 | 0 | 0.0 | 0.0 | 0.00 | 0.00 | 0.00 | 63 | 1010.1 |
| 20260505063553 | 64 | 0 | 0.0 | 0.0 | 0.00 | 0.00 | 0.00 | 61 | 1010.2 |
| 20260505063057 | 64 | 0 | 0.0 | 0.0 | 0.00 | 0.00 | 0.00 | 60 | 1010.2 |
| 20260505062552 | 64 | 0 | 0.0 | 4.3 | 0.00 | 0.00 | 0.00 | 60 | 1010.4 |
| 20260505062055 | 64 | 0 | 0.0 | 7.8 | 0.00 | 0.00 | 0.00 | 60 | 1010.5 |
| 20260505061556 | 64 | 193 | 0.9 | 7.8 | 0.00 | 0.00 | 0.00 | 60 | 1010.4 |
| 20260505061051 | 65 | 251 | 1.7 | 7.8 | 0.00 | 0.00 | 0.00 | 60 | 1010.3 |
| 20260505060556 | 65 | 251 | 1.7 | 7.8 | 0.00 | 0.00 | 0.00 | 59 | 1010.4 |
| 20260505060058 | 65 | 0 | 1.7 | 7.8 | 0.00 | 0.00 | 0.00 | 59 | 1010.4 |
| 20260505055551 | 65 | 250 | 1.7 | 7.0 | 0.00 | 0.00 | 0.00 | 59 | 1010.4 |
| 20260505055053 | 65 | 244 | 0.9 | 4.3 | 0.00 | 0.00 | 0.00 | 59 | 1010.3 |
| 20260505054620 | 65 | 0 | 0.9 | 6.1 | 0.00 | 0.00 | 0.00 | 59 | 1010.4 |
| 20260505054054 | 65 | 248 | 1.7 | 6.1 | 0.00 | 0.00 | 0.00 | 59 | 1010.4 |
| 20260505053554 | 65 | 223 | 1.7 | 7.0 | 0.00 | 0.00 | 0.00 | 59 | 1010.3 |
| 20260505053054 | 65 | 229 | 0.9 | 7.0 | 0.00 | 0.00 | 0.00 | 59 | 1010.4 |
| 20260505052552 | 65 | 258 | 2.6 | 7.0 | 0.00 | 0.00 | 0.00 | 59 | 1010.3 |
| 20260505052052 | 65 | 229 | 0.9 | 5.2 | 0.00 | 0.00 | 0.00 | 59 | 1010.3 |
| 20260505051552 | 64 | 278 | 0.9 | 5.2 | 0.00 | 0.00 | 0.00 | 59 | 1010.2 |
| 20260505051052 | 65 | 0 | 0.0 | 4.3 | 0.00 | 0.00 | 0.00 | 60 | 1010.2 |
| 20260505050552 | 65 | 207 | 0.0 | 4.3 | 0.00 | 0.00 | 0.00 | 59 | 1010.2 |
| 20260505041605 | 66 | 242 | 2.6 | 9.6 | 0.00 | 0.00 | 0.00 | 55 | 1010.0 |
| 20260505041052 | 66 | 255 | 3.5 | 8.7 | 0.00 | 0.00 | 0.00 | 55 | 1010.2 |
| 20260505040552 | 66 | 254 | 3.5 | 11.3 | 0.00 | 0.00 | 0.00 | 55 | 1010.1 |
| 20260505040058 | 66 | 228 | 5.2 | 13.0 | 0.00 | 0.00 | 0.00 | 55 | 1010.0 |
| 20260505035551 | 66 | 257 | 4.3 | 13.0 | 0.00 | 0.00 | 0.00 | 55 | 1010.0 |
| 20260505035053 | 65 | 215 | 4.3 | 9.6 | 0.00 | 0.00 | 0.00 | 56 | 1010.1 |
| 20260505034601 | 65 | 219 | 2.6 | 8.7 | 0.00 | 0.00 | 0.00 | 58 | 1010.1 |
| 20260505034052 | 64 | 215 | 2.6 | 8.7 | 0.00 | 0.00 | 0.00 | 59 | 1009.9 |
| 20260505033551 | 63 | 200 | 1.7 | 7.0 | 0.00 | 0.00 | 0.00 | 59 | 1010.1 |
| 20260505033054 | 63 | 258 | 1.7 | 6.1 | 0.00 | 0.00 | 0.00 | 58 | 1010.0 |
| 20260505032553 | 63 | 169 | 0.9 | 2.6 | 0.00 | 0.00 | 0.00 | 58 | 1010.0 |
| 20260505032054 | 63 | 0 | 0.0 | 1.7 | 0.00 | 0.00 | 0.00 | 57 | 1009.8 |
| 20260505031555 | 63 | 0 | 0.0 | 2.6 | 0.00 | 0.00 | 0.00 | 56 | 1010.1 |
| 20260505031051 | 63 | 0 | 0.0 | 2.6 | 0.00 | 0.00 | 0.00 | 56 | 1010.1 |
| 20260505030554 | 63 | 0 | 0.0 | 2.6 | 0.00 | 0.00 | 0.00 | 56 | 1010.1 |
| 20260505025553 | 64 | 148 | 0.9 | 6.1 | 0.00 | 0.00 | 0.00 | 55 | 1010.0 |
| 20260505025052 | 64 | 148 | 2.6 | 6.1 | 0.00 | 0.00 | 0.00 | 55 | 1009.9 |
| 20260505024601 | 64 | 148 | 2.6 | 7.0 | 0.00 | 0.00 | 0.00 | 55 | 1009.8 |
| 20260505024052 | 64 | 146 | 4.3 | 7.0 | 0.00 | 0.00 | 0.00 | 55 | 1009.7 |
| 20260505023552 | 64 | 164 | 3.5 | 6.1 | 0.00 | 0.00 | 0.00 | 54 | 1009.8 |
| 20260505023058 | 64 | 166 | 1.7 | 9.6 | 0.00 | 0.00 | 0.00 | 54 | 1010.0 |
| 20260505022554 | 63 | 149 | 3.5 | 9.6 | 0.00 | 0.00 | 0.00 | 55 | 1010.1 |
| 20260505022052 | 63 | 154 | 2.6 | 6.1 | 0.00 | 0.00 | 0.00 | 56 | 1010.1 |
| 20260505021558 | 63 | 157 | 0.9 | 6.1 | 0.00 | 0.00 | 0.00 | 55 | 1010.0 |
| 20260505021051 | 63 | 0 | 0.0 | 4.3 | 0.00 | 0.00 | 0.00 | 55 | 1010.0 |
| 20260505020551 | 63 | 146 | 1.7 | 4.3 | 0.00 | 0.00 | 0.00 | 54 | 1010.1 |
| 20260505015551 | 63 | 145 | 0.9 | 4.3 | 0.00 | 0.00 | 0.00 | 53 | 1009.9 |
| 20260505015053 | 63 | 145 | 1.7 | 6.1 | 0.00 | 0.00 | 0.00 | 53 | 1009.9 |
| 20260505014554 | 63 | 144 | 2.6 | 6.1 | 0.00 | 0.00 | 0.00 | 53 | 1009.8 |
| 20260505014100 | 63 | 147 | 1.7 | 5.2 | 0.00 | 0.00 | 0.00 | 53 | 1009.9 |
| 20260505013552 | 64 | 154 | 0.9 | 5.2 | 0.00 | 0.00 | 0.00 | 53 | 1009.8 |
| 20260505013054 | 64 | 154 | 1.7 | 6.1 | 0.00 | 0.00 | 0.00 | 52 | 1009.7 |
| 20260505012551 | 64 | 154 | 1.7 | 6.1 | 0.00 | 0.00 | 0.00 | 52 | 1009.9 |
| 20260505012054 | 65 | 155 | 1.7 | 5.2 | 0.00 | 0.00 | 0.00 | 51 | 1009.9 |
| 20260505011553 | 65 | 163 | 2.6 | 6.1 | 0.00 | 0.00 | 0.00 | 50 | 1009.9 |
| 20260505011054 | 65 | 163 | 3.5 | 6.1 | 0.00 | 0.00 | 0.00 | 49 | 1009.8 |
| 20260505010555 | 65 | 165 | 2.6 | 7.0 | 0.00 | 0.00 | 0.00 | 49 | 1009.7 |
| 20260505010111 | 66 | 185 | 3.5 | 7.0 | 0.00 | 0.00 | 0.00 | 49 | 1009.6 |
| 20260505005552 | 66 | 169 | 2.6 | 7.0 | 0.00 | 0.00 | 0.00 | 48 | 1009.5 |
| 20260505005052 | 66 | 168 | 3.5 | 7.0 | 0.00 | 0.00 | 0.00 | 47 | 1009.6 |
| 20260505004557 | 67 | 169 | 2.6 | 7.0 | 0.00 | 0.00 | 0.00 | 47 | 1009.6 |
| 20260505004052 | 67 | 182 | 2.6 | 6.1 | 0.00 | 0.00 | 0.00 | 47 | 1009.2 |
| 20260505003551 | 67 | 155 | 2.6 | 6.1 | 0.00 | 0.00 | 0.00 | 47 | 1009.2 |
| 20260505003054 | 67 | 164 | 3.5 | 7.8 | 0.00 | 0.00 | 0.00 | 46 | 1009.3 |
| 20260505002551 | 67 | 169 | 4.3 | 7.8 | 0.00 | 0.00 | 0.00 | 46 | 1009.2 |
| 20260505002052 | 68 | 161 | 3.5 | 7.0 | 0.00 | 0.00 | 0.00 | 45 | 1009.3 |
| 20260505001555 | 68 | 166 | 4.3 | 6.1 | 0.00 | 0.00 | 0.00 | 46 | 1009.4 |
| 20260505001054 | 68 | 167 | 3.5 | 6.1 | 0.00 | 0.00 | 0.00 | 45 | 1009.3 |
| 20260505000552 | 68 | 178 | 3.5 | 6.1 | 0.00 | 0.00 | 0.00 | 45 | 1009.2 |
| 20260505000101 | 69 | 169 | 3.5 | 7.0 | 0.00 | 0.00 | 0.00 | 45 | 1009.1 |
| 20260504235554 | 69 | 167 | 4.3 | 7.0 | 0.00 | 0.00 | 0.00 | 45 | 1009.0 |
| 20260504235052 | 69 | 155 | 4.3 | 7.8 | 0.00 | 0.00 | 0.00 | 44 | 1009.1 |
| 20260504234600 | 70 | 161 | 4.3 | 13.9 | 0.00 | 0.00 | 0.00 | 43 | 1009.1 |
| 20260504234051 | 70 | 157 | 6.1 | 13.9 | 0.00 | 0.00 | 0.00 | 43 | 1009.0 |
| 20260504233555 | 70 | 173 | 4.3 | 9.6 | 0.00 | 0.00 | 0.00 | 42 | 1009.0 |
| 20260504233105 | 71 | 190 | 4.3 | 10.4 | 0.00 | 0.00 | 0.00 | 43 | 1009.1 |
| 20260504232553 | 71 | 160 | 3.5 | 10.4 | 0.00 | 0.00 | 0.00 | 42 | 1009.1 |
| 20260504232052 | 71 | 204 | 4.3 | 8.7 | 0.00 | 0.00 | 0.00 | 41 | 1009.2 |
| 20260504231554 | 71 | 139 | 3.5 | 10.4 | 0.00 | 0.00 | 0.00 | 41 | 1009.1 |
| 20260504231051 | 71 | 161 | 2.6 | 10.4 | 0.00 | 0.00 | 0.00 | 41 | 1009.2 |
| 20260504230555 | 72 | 147 | 1.7 | 10.4 | 0.00 | 0.00 | 0.00 | 41 | 1009.2 |
| 20260504230114 | 72 | 188 | 3.5 | 12.2 | 0.00 | 0.00 | 0.00 | 40 | 1009.2 |
| 20260504225553 | 72 | 161 | 6.1 | 12.2 | 0.00 | 0.00 | 0.00 | 40 | 1009.2 |
| 20260504225056 | 72 | 159 | 2.6 | 10.4 | 0.00 | 0.00 | 0.00 | 40 | 1009.2 |
| 20260504224626 | 72 | 234 | 2.6 | 7.8 | 0.00 | 0.00 | 0.00 | 41 | 1009.3 |
| 20260504224052 | 72 | 171 | 2.6 | 10.4 | 0.00 | 0.00 | 0.00 | 39 | 1009.2 |
| 20260504223552 | 72 | 113 | 3.5 | 13.0 | 0.00 | 0.00 | 0.00 | 39 | 1009.4 |
| 20260504223106 | 72 | 213 | 6.1 | 13.0 | 0.00 | 0.00 | 0.00 | 41 | 1009.3 |
| 20260504222551 | 72 | 138 | 3.5 | 10.4 | 0.00 | 0.00 | 0.00 | 40 | 1009.5 |
| 20260504222051 | 72 | 215 | 3.5 | 11.3 | 0.00 | 0.00 | 0.00 | 42 | 1009.5 |
| 20260504221553 | 72 | 159 | 4.3 | 13.0 | 0.00 | 0.00 | 0.00 | 41 | 1009.4 |
| 20260504221053 | 73 | 132 | 3.5 | 13.0 | 0.00 | 0.00 | 0.00 | 40 | 1009.4 |
| 20260504220552 | 73 | 159 | 5.2 | 13.9 | 0.00 | 0.00 | 0.00 | 41 | 1009.4 |
| 20260504220100 | 73 | 220 | 3.5 | 13.9 | 0.00 | 0.00 | 0.00 | 39 | 1009.4 |
| 20260504215553 | 73 | 183 | 6.1 | 13.9 | 0.00 | 0.00 | 0.00 | 40 | 1009.5 |
| 20260504215054 | 73 | 0 | 5.2 | 13.9 | 0.00 | 0.00 | 0.00 | 39 | 1009.3 |
| 20260504214555 | 73 | 212 | 6.1 | 13.9 | 0.00 | 0.00 | 0.00 | 39 | 1009.4 |
| 20260504214055 | 73 | 168 | 7.0 | 13.9 | 0.00 | 0.00 | 0.00 | 40 | 1009.6 |
| 20260504213551 | 73 | 146 | 6.1 | 13.0 | 0.00 | 0.00 | 0.00 | 40 | 1009.4 |
| 20260504213102 | 73 | 142 | 3.5 | 12.2 | 0.00 | 0.00 | 0.00 | 39 | 1009.4 |
| 20260504212557 | 73 | 194 | 4.3 | 16.5 | 0.00 | 0.00 | 0.00 | 40 | 1009.4 |
| 20260504212055 | 73 | 209 | 4.3 | 18.2 | 0.00 | 0.00 | 0.00 | 37 | 1009.5 |
| 20260504211604 | 73 | 119 | 9.6 | 18.2 | 0.00 | 0.00 | 0.00 | 39 | 1009.5 |
| 20260504211053 | 73 | 146 | 8.7 | 17.4 | 0.00 | 0.00 | 0.00 | 42 | 1009.3 |
| 20260504210557 | 73 | 155 | 4.3 | 17.4 | 0.00 | 0.00 | 0.00 | 39 | 1009.4 |
| 20260504205554 | 74 | 214 | 4.3 | 13.9 | 0.00 | 0.00 | 0.00 | 39 | 1009.4 |
| 20260504205050 | 74 | 157 | 7.8 | 13.9 | 0.00 | 0.00 | 0.00 | 39 | 1009.3 |
| 20260504204605 | 73 | 217 | 2.6 | 20.0 | 0.00 | 0.00 | 0.00 | 38 | 1009.2 |
| 20260504204057 | 73 | 220 | 7.0 | 20.0 | 0.00 | 0.00 | 0.00 | 38 | 1009.5 |
| 20260504203555 | 73 | 151 | 3.5 | 14.8 | 0.00 | 0.00 | 0.00 | 39 | 1009.3 |
| 20260504203056 | 73 | 170 | 6.1 | 13.0 | 0.00 | 0.00 | 0.00 | 38 | 1009.6 |
| 20260504202554 | 73 | 214 | 6.1 | 13.0 | 0.00 | 0.00 | 0.00 | 39 | 1009.6 |
| 20260504202124 | 73 | 86 | 7.0 | 13.9 | 0.00 | 0.00 | 0.00 | 42 | 1009.6 |
| 20260504201610 | 73 | 143 | 6.1 | 13.9 | 0.00 | 0.00 | 0.00 | 40 | 1009.7 |
| 20260504201053 | 73 | 158 | 4.3 | 10.4 | 0.00 | 0.00 | 0.00 | 38 | 1009.6 |
| 20260504200551 | 73 | 236 | 3.5 | 13.0 | 0.00 | 0.00 | 0.00 | 38 | 1009.9 |
| 20260504195551 | 73 | 221 | 3.5 | 13.0 | 0.00 | 0.00 | 0.00 | 39 | 1010.0 |
| 20260504195055 | 73 | 202 | 4.3 | 12.2 | 0.00 | 0.00 | 0.00 | 39 | 1010.1 |
| 20260504194555 | 73 | 144 | 3.5 | 14.8 | 0.00 | 0.00 | 0.00 | 39 | 1010.0 |
| 20260504194054 | 72 | 249 | 6.1 | 16.5 | 0.00 | 0.00 | 0.00 | 41 | 1010.2 |
| 20260504193551 | 72 | 182 | 9.6 | 16.5 | 0.00 | 0.00 | 0.00 | 40 | 1010.2 |
| 20260504193053 | 72 | 142 | 3.5 | 9.6 | 0.00 | 0.00 | 0.00 | 40 | 1010.3 |
| 20260504192555 | 72 | 186 | 3.5 | 12.2 | 0.00 | 0.00 | 0.00 | 40 | 1010.2 |
| 20260504192051 | 72 | 261 | 7.0 | 12.2 | 0.00 | 0.00 | 0.00 | 38 | 1010.6 |
| 20260504191610 | 72 | 205 | 4.3 | 12.2 | 0.00 | 0.00 | 0.00 | 39 | 1010.7 |
| 20260504191054 | 72 | 177 | 7.0 | 16.5 | 0.00 | 0.00 | 0.00 | 39 | 1010.7 |
| 20260504190554 | 72 | 139 | 6.1 | 16.5 | 0.00 | 0.00 | 0.00 | 41 | 1010.7 |
| 20260504190056 | 71 | 141 | 6.1 | 13.9 | 0.00 | 0.00 | 0.00 | 42 | 1010.8 |
| 20260504185553 | 71 | 217 | 7.0 | 13.9 | 0.00 | 0.00 | 0.00 | 42 | 1010.8 |
| 20260504185050 | 71 | 250 | 5.2 | 15.6 | 0.00 | 0.00 | 0.00 | 40 | 1010.9 |
| 20260504184553 | 71 | 202 | 3.5 | 16.5 | 0.00 | 0.00 | 0.00 | 43 | 1011.0 |
| 20260504184052 | 71 | 163 | 9.6 | 16.5 | 0.00 | 0.00 | 0.00 | 41 | 1011.0 |
| 20260504183552 | 71 | 241 | 7.0 | 16.5 | 0.00 | 0.00 | 0.00 | 38 | 1011.3 |
| 20260504183053 | 71 | 252 | 7.0 | 16.5 | 0.00 | 0.00 | 0.00 | 44 | 1011.4 |
| 20260504182552 | 71 | 266 | 4.3 | 13.9 | 0.00 | 0.00 | 0.00 | 41 | 1011.4 |
| 20260504182051 | 71 | 146 | 7.8 | 13.9 | 0.00 | 0.00 | 0.00 | 40 | 1011.4 |
| 20260504181553 | 71 | 225 | 2.6 | 13.0 | 0.00 | 0.00 | 0.00 | 40 | 1011.5 |
| 20260504181051 | 71 | 254 | 5.2 | 13.0 | 0.00 | 0.00 | 0.00 | 43 | 1011.6 |
| 20260504180553 | 71 | 162 | 4.3 | 12.2 | 0.00 | 0.00 | 0.00 | 41 | 1011.5 |
| 20260504180055 | 71 | 0 | 4.3 | 10.4 | 0.00 | 0.00 | 0.00 | 44 | 1011.6 |
| 20260504175551 | 70 | 222 | 3.5 | 12.2 | 0.00 | 0.00 | 0.00 | 43 | 1011.8 |
| 20260504175054 | 69 | 219 | 4.3 | 14.8 | 0.00 | 0.00 | 0.00 | 42 | 1011.8 |
| 20260504174557 | 69 | 165 | 8.7 | 15.6 | 0.00 | 0.00 | 0.00 | 43 | 1011.8 |
| 20260504174051 | 70 | 149 | 8.7 | 15.6 | 0.00 | 0.00 | 0.00 | 42 | 1011.9 |
| 20260504173553 | 70 | 243 | 1.7 | 12.2 | 0.00 | 0.00 | 0.00 | 42 | 1012.0 |
| 20260504173058 | 69 | 150 | 4.3 | 12.2 | 0.00 | 0.00 | 0.00 | 44 | 1012.1 |
| 20260504172550 | 68 | 256 | 3.5 | 12.2 | 0.00 | 0.00 | 0.00 | 44 | 1012.0 |
| 20260504172050 | 68 | 234 | 4.3 | 12.2 | 0.00 | 0.00 | 0.00 | 43 | 1012.0 |
| 20260504171552 | 69 | 227 | 4.3 | 12.2 | 0.00 | 0.00 | 0.00 | 41 | 1012.1 |
| 20260504171052 | 69 | 212 | 4.3 | 11.3 | 0.00 | 0.00 | 0.00 | 42 | 1012.1 |
| 20260504170552 | 69 | 238 | 5.2 | 11.3 | 0.00 | 0.00 | 0.00 | 41 | 1012.2 |
| 20260504151051 | 65 | 253 | 4.3 | 13.0 | 0.00 | 0.00 | 0.00 | 43 | 1013.7 |
| 20260504150554 | 65 | 299 | 5.2 | 16.5 | 0.00 | 0.00 | 0.00 | 44 | 1013.6 |
| 20260504141051 | 62 | 258 | 6.1 | 10.4 | 0.00 | 0.00 | 0.00 | 43 | 1013.9 |
| 20260504140551 | 62 | 261 | 6.1 | 11.3 | 0.00 | 0.00 | 0.00 | 47 | 1014.0 |
| 20260504130553 | 53 | 219 | 1.7 | 4.3 | 0.00 | 0.00 | 0.00 | 66 | 1014.2 |
| 20260504120132 | 46 | 0 | 0.0 | 2.6 | 0.00 | 0.00 | 0.00 | 71 | 1014.6 |
| 20260504110554 | 40 | 0 | 0.0 | 0.0 | 0.00 | 0.00 | 0.00 | 86 | 1014.6 |
| 20260504100552 | 38 | 0 | 0.0 | 0.0 | 0.00 | 0.00 | 0.00 | 84 | 1014.9 |